SCP
0 0 0 0 0 0 0 0 0 0 0 0 0 0 0 0 0 0 0 0 0 0 -0 0 -0 -0 -0 -0 0 0 0 0 0 0 1 1 1 1 0 0 1 1 1
0 0 0 0 0 0 -0 0 0 0 0 0 0 0 0 0 0 0 0 0 0 0 0 0 0 0 -0 -0 -0 -0 0 0 0 0 1 1 1 1 1 0 1 1 1
0 0 0 0 0 0 0 0 0 0 0 0 0 0 0 0 0 0 0 0 0 0 0 0 0 0 0 -0 -0 -0 0 0 0 0 0 1 1 1 1 1 1 1 1
0 0 0 0 0 0 0 0 0 0 0 0 0 0 0 0 0 0 0 0 0 0 0 0 0 0 0 -0 0 0 0 0 0 0 0 0 1 1 1 1 1 1 1
0 0 0 0 0 0 0 0 0 0 0 0 0 0 0 0 0 0 0 0 0 0 0 0 0 1 0 0 0 0 0 0 0 0 0 0 1 1 1 1 1 1 1
-0 0 0 0 0 0 0 0 0 0 0 0 0 0 0 0 0 0 0 0 0 0 0 0 0 0 0 0 0 0 0 0 0 0 0 0 1 1 1 1 1 1 1
-0 -0 -0 0 -0 0 0 0 -0 -0 0 0 0 0 0 0 0 0 0 0 0 0 0 0 0 0 0 0 0 0 0 0 0 0 0 0 0 0 0 1 1 1 1
0 -0 -0 -0 -0 -0 0 0 -0 0 0 0 0 0 0 0 0 0 0 0 0 0 0 0 0 0 0 0 0 0 0 0 0 0 0 0 0 0 1 1 1 1 1
0 -0 -0 -0 -0 -0 -0 -0 -0 0 0 0 0 0 0 0 0 0 0 0 0 0 0 0 0 0 0 0 0 0 0 0 0 0 0 0 1 1 1 1 1 1 1
0 -0 0 0 -0 -0 -0 -0 -0 -0 0 0 0 0 0 0 0 0 0 0 0 0 0 0 0 0 0 0 0 0 0 0 0 0 0 0 0 1 1 1 1 1 1
0 0 0 0 0 0 -0 -0 -0 0 0 0 0 0 0 0 0 0 0 0 0 0 0 0 0 0 0 0 0 0 0 0 0 0 0 0 1 1 1 1 1 1 1
0 0 0 0 0 0 -0 -0 0 0 0 0 0 0 0 0 0 0 0 0 0 0 0 0 0 0 0 0 0 0 0 0 0 0 0 0 0 1 1 1 1 1 0
0 0 0 0 0 0 0 -0 0 0 0 0 0 0 0 0 0 0 0 0 0 0 0 0 0 0 0 0 0 0 0 0 0 0 0 0 0 0 0 1 1 1 1
0 0 0 0 0 0 0 0 0 0 0 0 0 0 0 0 0 0 0 0 0 0 0 0 0 0 0 0 0 0 0 0 0 0 0 0 0 0 0 0 0 1 1
0 0 0 0 0 0 0 0 0 0 0 0 0 0 0 0 0 0 0 0 0 0 0 0 0 0 0 0 0 0 0 0 0 0 0 0 0 0 0 0 0 0 0
0 0 0 0 0 0 0 0 0 0 0 0 0 0 0 0 0 0 0 0 0 0 0 0 0 0 0 0 0 0 0 0 0 0 0 0 0 0 0 0 0 0 0
0 0 0 0 0 0 0 0 0 0 0 0 0 0 0 0 0 0 0 0 0 0 0 0 0 0 0 0 0 0 0 0 0 0 0 0 0 0 0 0 0 0 0
0 0 0 0 0 0 0 0 0 0 0 0 0 0 0 0 0 0 -0 -0 0 0 0 0 0 0 0 0 0 -0 -0 0 0 -0 0 0 0 0 0 0 0 0 0
0 0 0 0 0 0 0 0 0 0 0 0 0 0 0 0 0 0 0 0 0 0 0 -0 0 0 0 0 0 0 -0 0 0 -0 -0 -0 -0 0 0 0 0 0 0
0 0 0 0 0 0 0 0 0 0 0 0 0 0 0 0 0 0 0 0 0 0 0 -0 0 0 0 -0 -0 0 -0 -0 -0 -0 -0 -0 -0 -0 -0 0 0 0 0
0 0 0 0 0 0 0 0 0 0 0 0 0 0 0 0 0 -0 0 0 0 0 -0 -0 0 0 0 -0 -0 0 0 0 0 -0 0 0 0 0 0 0 0 0 0
0 0 0 0 0 0 0 0 0 0 0 0 0 0 0 0 0 0 -0 0 0 0 -0 -0 0 0 0 0 0 0 -0 0 0 -0 0 -0 0 -0 0 0 -0 0 0
0 0 0 0 0 0 0 0 0 0 0 0 0 0 0 0 0 0 0 -0 0 0 0 0 0 0 -0 -0 -0 -0 -0 -0 -0 0 0 -0 0 -0 -0 -0 -0 -0 0
0 0 0 0 0 0 0 0 0 0 0 0 0 0 0 0 0 0 0 0 0 0 0 0 0 0 0 0 0 0 0 -0 -0 0 0 0 0 0 -0 0 -0 -0 -0
0 0 0 0 0 0 0 0 0 0 0 0 0 0 0 0 0 0 0 0 0 0 0 -0 0 0 0 0 0 0 0 0 0 0 0 0 0 0 0 0 0 -0 -0
0 0 0 0 0 0 0 0 0 0 0 0 0 0 0 0 0 0 0 0 0 0 0 0 0 0 0 0 0 -0 0 0 0 0 0 0 0 0 0 0 0 0 0
Wind_Speed_500mb
26 29 30 35 33 27 22 24 16 21 19 17 28 37 33 45 49 26 28 24 13 29 35 36 36 37 36 37 34 26 28 38 43 42 42 39 36 33 30 31 33 35 39
20 29 31 32 29 28 30 26 22 30 19 27 49 53 31 48 41 47 50 36 26 16 22 35 34 33 34 41 42 38 29 32 45 50 49 48 46 43 39 35 35 38 39
34 38 37 34 28 27 27 22 20 22 16 27 36 34 47 45 42 51 44 57 73 68 40 39 23 27 36 44 41 41 39 36 39 53 57 55 53 50 47 43 40 42 44
42 45 47 34 28 23 27 23 21 20 27 32 34 34 40 38 48 40 33 33 27 27 40 39 38 37 38 35 29 35 43 37 35 45 59 61 59 56 53 49 45 42 46
46 49 43 36 30 27 26 28 25 17 16 17 23 19 19 20 18 23 22 25 23 26 33 43 35 27 27 28 28 29 33 32 31 35 51 64 65 62 56 53 50 46 44
55 45 48 44 37 27 22 25 26 20 17 24 23 15 10 14 27 22 21 21 20 26 32 29 29 27 25 31 35 35 41 51 49 36 38 60 67 66 63 57 53 49 46
46 54 52 57 48 37 36 36 39 39 30 21 22 28 13 11 11 14 13 24 33 37 34 29 35 46 53 47 40 43 41 51 49 39 42 45 67 68 67 61 58 53 47
43 52 54 45 40 34 36 36 37 36 29 28 29 23 12 17 10 2 3 7 17 26 31 34 39 37 37 37 41 37 37 45 39 34 35 39 60 68 69 64 60 56 50
46 53 52 44 41 38 37 34 32 33 35 28 21 16 10 9 31 4 8 8 12 16 25 31 31 32 30 33 35 31 36 45 38 38 36 38 47 68 70 66 62 59 52
47 48 47 43 41 40 35 33 31 28 28 30 25 11 14 21 11 14 16 18 18 17 21 21 25 23 21 25 28 33 39 48 41 39 36 36 41 63 65 69 64 62 56
39 47 45 46 45 45 41 35 30 28 24 27 23 22 22 16 14 19 27 13 17 16 20 21 26 29 31 36 38 39 46 54 51 44 37 33 37 51 61 70 66 66 61
43 49 45 46 48 40 46 38 28 30 28 25 23 24 25 24 21 16 22 24 21 14 13 19 28 31 31 35 37 39 38 42 40 43 40 35 35 47 55 68 69 68 64
47 48 52 46 44 42 42 35 32 32 32 29 26 24 21 19 23 19 18 19 15 9 8 17 19 22 28 33 34 32 30 34 34 36 37 33 35 44 56 64 65 67 69
44 48 52 46 40 37 40 38 34 33 32 34 29 30 22 13 7 17 18 13 9 1 3 6 13 18 23 20 21 16 17 17 21 24 29 38 41 48 48 68 67 73 73
48 46 53 44 36 34 39 39 38 36 33 31 33 33 21 11 4 8 7 7 7 4 3 10 15 19 19 13 13 13 16 13 22 23 30 39 40 48 52 47 59 63 63
48 56 48 42 39 36 38 41 39 37 34 32 33 33 27 20 12 3 2 5 4 6 7 7 14 17 17 15 14 16 18 18 17 21 33 40 35 46 49 50 57 61 70
45 49 46 42 39 39 36 42 42 41 34 28 27 27 25 20 18 13 8 4 1 3 12 9 4 11 13 8 13 17 17 14 19 24 24 29 37 35 40 53 53 56 52
43 48 40 44 41 42 33 41 49 42 36 31 29 28 27 22 20 12 11 11 8 7 5 0 5 9 14 22 22 14 7 11 17 24 26 28 34 38 40 43 52 55 59
45 49 41 43 42 36 36 37 45 44 41 37 33 36 33 27 27 22 14 11 13 12 8 8 11 9 12 15 23 30 26 22 19 20 18 24 30 32 37 41 51 58 57
42 44 49 46 39 34 34 37 40 41 41 35 30 29 37 33 30 26 17 14 11 11 12 8 9 4 8 8 7 9 19 31 31 22 14 12 10 16 25 33 45 52 52
38 39 43 40 36 35 40 44 41 42 52 49 38 33 32 33 32 27 21 15 10 11 11 11 8 9 3 6 11 11 11 10 28 34 25 11 7 6 4 8 30 40 40
33 36 39 36 32 37 40 43 48 48 46 46 44 34 33 40 40 32 25 17 14 15 13 15 15 15 19 19 17 23 16 9 6 27 42 35 31 27 25 18 14 39 37
28 33 39 32 26 27 28 32 38 42 43 49 45 34 28 31 33 34 39 28 11 6 7 9 13 10 24 31 29 32 29 27 26 24 32 47 52 42 34 35 26 23 36
26 29 32 32 25 25 26 30 30 33 37 39 45 48 38 31 26 27 35 41 40 35 29 23 18 20 20 24 26 34 35 39 42 40 34 45 46 55 45 33 31 25 29
28 26 25 29 29 27 22 21 25 30 32 29 37 42 40 25 27 30 32 34 40 43 39 37 32 25 28 26 22 21 18 18 23 27 32 31 33 43 53 50 34 23 24
24 28 30 24 25 25 26 27 26 28 29 29 33 35 29 26 23 24 25 26 26 26 26 25 26 24 13 9 10 11 14 17 8 13 25 22 18 18 42 42 45 41 30
Wind_Direction_500mb
330 313 326 325 343 327 313 248 242 270 236 259 234 249 261 244 243 242 222 221 228 297 303 299 309 305 308 307 318 280 251 236 233 230 227 225 222 219 215 212 207 207 205
347 353 351 350 342 339 337 332 279 313 228 254 240 234 253 243 260 242 242 255 251 283 282 302 299 290 298 308 312 297 267 247 235 231 230 227 225 229 227 225 222 217 213
351 343 342 337 350 355 351 349 340 334 262 256 266 249 261 276 272 269 265 261 259 276 264 275 268 280 297 304 302 293 289 264 242 232 230 229 228 228 232 233 232 228 223
2 353 345 342 351 354 359 353 348 308 293 292 283 270 272 279 280 273 275 284 249 263 249 267 277 276 285 293 278 286 294 283 258 240 230 230 230 228 230 232 233 231 228
346 335 335 330 313 331 342 343 344 335 340 347 332 300 285 283 283 301 284 279 266 240 262 270 274 279 262 253 277 280 287 289 271 261 239 227 228 228 227 229 232 233 231
15 15 8 9 356 344 340 347 348 347 332 320 327 313 292 287 293 293 289 269 240 236 255 271 265 265 258 259 274 275 282 279 283 269 257 232 225 226 224 228 230 232 233
17 14 10 5 5 1 0 352 342 343 346 335 319 288 283 307 320 332 302 240 238 245 254 267 281 277 283 273 277 283 280 285 275 270 257 245 227 225 223 224 229 231 233
8 4 0 5 1 360 360 356 359 357 2 23 9 357 332 291 275 301 295 259 257 258 265 278 289 288 288 275 276 280 277 276 277 275 266 251 232 225 223 221 226 228 231
8 9 11 7 9 5 2 358 352 353 351 7 10 5 337 327 317 238 327 318 294 290 291 290 286 297 288 281 278 270 277 284 286 278 270 259 243 225 222 218 224 225 226
5 4 5 7 7 1 355 353 351 351 346 348 353 343 314 299 308 302 299 285 268 276 279 297 295 294 289 286 276 273 277 279 283 284 275 263 249 225 222 216 219 220 219
12 4 2 2 2 358 350 345 351 0 342 333 330 329 327 318 289 275 296 287 269 260 288 272 282 281 278 276 272 269 266 270 278 285 272 262 250 227 223 217 217 219 218
11 7 8 3 359 9 9 13 15 8 360 345 327 316 304 300 297 290 278 294 302 295 281 265 280 287 289 288 284 281 279 271 271 271 266 262 249 227 219 217 218 218 218
8 4 359 3 5 8 13 13 12 14 12 2 348 337 322 290 271 275 285 290 301 323 264 279 286 296 302 305 305 296 277 276 273 265 260 265 254 226 221 214 217 219 217
9 1 4 4 2 12 20 21 19 13 11 8 2 346 326 300 286 292 277 270 294 346 188 279 300 308 319 320 339 350 341 304 274 255 251 253 246 237 219 212 216 218 220
4 6 4 5 18 18 19 22 19 16 13 9 16 22 29 15 309 281 231 251 274 286 333 263 309 324 321 299 291 312 317 320 280 262 261 245 238 231 227 230 215 220 220
9 15 6 12 19 19 19 18 17 20 18 26 34 40 44 41 41 21 252 237 229 248 236 236 306 327 323 300 287 300 291 275 290 294 252 240 232 226 224 225 222 224 230
13 5 8 7 11 20 24 23 19 18 23 28 35 34 32 40 39 45 61 115 147 189 230 232 343 358 341 317 310 305 289 267 277 286 280 257 247 235 231 228 224 225 224
12 8 12 7 15 21 24 24 20 20 25 29 32 29 34 32 33 49 72 68 68 76 94 40 98 53 68 54 46 30 348 284 279 283 279 280 251 236 228 226 230 231 225
12 17 20 18 17 25 25 28 27 31 34 32 33 43 48 51 45 49 74 59 74 63 60 73 92 111 91 70 54 51 48 36 24 353 299 281 279 245 232 229 227 226 224
19 22 21 20 23 28 34 35 33 35 33 29 36 34 45 51 54 56 60 73 71 48 36 17 27 307 235 283 344 19 47 44 29 7 347 298 286 265 242 236 226 221 219
20 23 21 26 38 46 43 47 52 43 42 46 48 58 55 50 49 49 52 57 45 41 49 55 55 90 101 293 349 337 328 18 35 39 46 95 142 119 193 215 209 206 206
19 23 26 30 49 52 56 53 47 42 42 42 43 50 54 50 44 45 43 47 68 87 87 79 80 65 56 66 59 53 58 23 29 45 52 57 80 87 88 94 178 189 186
17 17 23 25 37 38 49 40 28 27 33 39 36 33 35 27 27 39 41 45 50 36 32 49 64 75 90 84 67 56 55 52 58 62 56 57 62 74 76 81 79 142 178
15 10 16 22 25 31 34 40 28 21 23 26 27 25 21 23 46 65 60 59 65 71 69 59 63 77 94 87 72 58 66 69 64 61 56 58 64 70 71 88 94 105 144
16 6 7 21 22 24 23 23 20 12 14 18 23 19 23 45 56 54 59 61 60 65 69 69 70 74 89 72 59 47 42 42 44 38 32 41 54 68 76 75 82 121 139
5 6 4 6 13 21 25 24 25 26 18 23 12 13 20 30 35 34 31 30 37 40 51 62 66 69 69 45 19 31 20 354 311 3 21 29 37 65 66 82 93 105 126
Wind_Speed_850mb
26 29 30 35 33 27 22 24 16 21 19 17 28 37 33 45 49 26 28 24 13 29 35 36 36 37 36 37 34 26 28 38 43 42 42 39 36 33 30 31 33 35 39
20 29 31 32 29 28 30 26 22 30 19 27 49 53 31 48 41 47 50 36 26 16 22 35 34 33 34 41 42 38 29 32 45 50 49 48 46 43 39 35 35 38 39
34 38 37 34 28 27 27 22 20 22 16 27 36 34 47 45 42 51 44 57 73 68 40 39 23 27 36 44 41 41 39 36 39 53 57 55 53 50 47 43 40 42 44
42 45 47 34 28 23 27 23 21 20 27 32 34 34 40 38 48 40 33 33 27 27 40 39 38 37 38 35 29 35 43 37 35 45 59 61 59 56 53 49 45 42 46
46 49 43 36 30 27 26 28 25 17 16 17 23 19 19 20 18 23 22 25 23 26 33 43 35 27 27 28 28 29 33 32 31 35 51 64 65 62 56 53 50 46 44
55 45 48 44 37 27 22 25 26 20 17 24 23 15 10 14 27 22 21 21 20 26 32 29 29 27 25 31 35 35 41 51 49 36 38 60 67 66 63 57 53 49 46
46 54 52 57 48 37 36 36 39 39 30 21 22 28 13 11 11 14 13 24 33 37 34 29 35 46 53 47 40 43 41 51 49 39 42 45 67 68 67 61 58 53 47
43 52 54 45 40 34 36 36 37 36 29 28 29 23 12 17 10 2 3 7 17 26 31 34 39 37 37 37 41 37 37 45 39 34 35 39 60 68 69 64 60 56 50
46 53 52 44 41 38 37 34 32 33 35 28 21 16 10 9 31 4 8 8 12 16 25 31 31 32 30 33 35 31 36 45 38 38 36 38 47 68 70 66 62 59 52
47 48 47 43 41 40 35 33 31 28 28 30 25 11 14 21 11 14 16 18 18 17 21 21 25 23 21 25 28 33 39 48 41 39 36 36 41 63 65 69 64 62 56
39 47 45 46 45 45 41 35 30 28 24 27 23 22 22 16 14 19 27 13 17 16 20 21 26 29 31 36 38 39 46 54 51 44 37 33 37 51 61 70 66 66 61
43 49 45 46 48 40 46 38 28 30 28 25 23 24 25 24 21 16 22 24 21 14 13 19 28 31 31 35 37 39 38 42 40 43 40 35 35 47 55 68 69 68 64
47 48 52 46 44 42 42 35 32 32 32 29 26 24 21 19 23 19 18 19 15 9 8 17 19 22 28 33 34 32 30 34 34 36 37 33 35 44 56 64 65 67 69
44 48 52 46 40 37 40 38 34 33 32 34 29 30 22 13 7 17 18 13 9 1 3 6 13 18 23 20 21 16 17 17 21 24 29 38 41 48 48 68 67 73 73
48 46 53 44 36 34 39 39 38 36 33 31 33 33 21 11 4 8 7 7 7 4 3 10 15 19 19 13 13 13 16 13 22 23 30 39 40 48 52 47 59 63 63
48 56 48 42 39 36 38 41 39 37 34 32 33 33 27 20 12 3 2 5 4 6 7 7 14 17 17 15 14 16 18 18 17 21 33 40 35 46 49 50 57 61 70
45 49 46 42 39 39 36 42 42 41 34 28 27 27 25 20 18 13 8 4 1 3 12 9 4 11 13 8 13 17 17 14 19 24 24 29 37 35 40 53 53 56 52
43 48 40 44 41 42 33 41 49 42 36 31 29 28 27 22 20 12 11 11 8 7 5 0 5 9 14 22 22 14 7 11 17 24 26 28 34 38 40 43 52 55 59
45 49 41 43 42 36 36 37 45 44 41 37 33 36 33 27 27 22 14 11 13 12 8 8 11 9 12 15 23 30 26 22 19 20 18 24 30 32 37 41 51 58 57
42 44 49 46 39 34 34 37 40 41 41 35 30 29 37 33 30 26 17 14 11 11 12 8 9 4 8 8 7 9 19 31 31 22 14 12 10 16 25 33 45 52 52
38 39 43 40 36 35 40 44 41 42 52 49 38 33 32 33 32 27 21 15 10 11 11 11 8 9 3 6 11 11 11 10 28 34 25 11 7 6 4 8 30 40 40
33 36 39 36 32 37 40 43 48 48 46 46 44 34 33 40 40 32 25 17 14 15 13 15 15 15 19 19 17 23 16 9 6 27 42 35 31 27 25 18 14 39 37
28 33 39 32 26 27 28 32 38 42 43 49 45 34 28 31 33 34 39 28 11 6 7 9 13 10 24 31 29 32 29 27 26 24 32 47 52 42 34 35 26 23 36
26 29 32 32 25 25 26 30 30 33 37 39 45 48 38 31 26 27 35 41 40 35 29 23 18 20 20 24 26 34 35 39 42 40 34 45 46 55 45 33 31 25 29
28 26 25 29 29 27 22 21 25 30 32 29 37 42 40 25 27 30 32 34 40 43 39 37 32 25 28 26 22 21 18 18 23 27 32 31 33 43 53 50 34 23 24
24 28 30 24 25 25 26 27 26 28 29 29 33 35 29 26 23 24 25 26 26 26 26 25 26 24 13 9 10 11 14 17 8 13 25 22 18 18 42 42 45 41 30
Wind_Direction_850mb
330 313 326 325 343 327 313 248 242 270 236 259 234 249 261 244 243 242 222 221 228 297 303 299 309 305 308 307 318 280 251 236 233 230 227 225 222 219 215 212 207 207 205
347 353 351 350 342 339 337 332 279 313 228 254 240 234 253 243 260 242 242 255 251 283 282 302 299 290 298 308 312 297 267 247 235 231 230 227 225 229 227 225 222 217 213
351 343 342 337 350 355 351 349 340 334 262 256 266 249 261 276 272 269 265 261 259 276 264 275 268 280 297 304 302 293 289 264 242 232 230 229 228 228 232 233 232 228 223
2 353 345 342 351 354 359 353 348 308 293 292 283 270 272 279 280 273 275 284 249 263 249 267 277 276 285 293 278 286 294 283 258 240 230 230 230 228 230 232 233 231 228
346 335 335 330 313 331 342 343 344 335 340 347 332 300 285 283 283 301 284 279 266 240 262 270 274 279 262 253 277 280 287 289 271 261 239 227 228 228 227 229 232 233 231
15 15 8 9 356 344 340 347 348 347 332 320 327 313 292 287 293 293 289 269 240 236 255 271 265 265 258 259 274 275 282 279 283 269 257 232 225 226 224 228 230 232 233
17 14 10 5 5 1 0 352 342 343 346 335 319 288 283 307 320 332 302 240 238 245 254 267 281 277 283 273 277 283 280 285 275 270 257 245 227 225 223 224 229 231 233
8 4 0 5 1 360 360 356 359 357 2 23 9 357 332 291 275 301 295 259 257 258 265 278 289 288 288 275 276 280 277 276 277 275 266 251 232 225 223 221 226 228 231
8 9 11 7 9 5 2 358 352 353 351 7 10 5 337 327 317 238 327 318 294 290 291 290 286 297 288 281 278 270 277 284 286 278 270 259 243 225 222 218 224 225 226
5 4 5 7 7 1 355 353 351 351 346 348 353 343 314 299 308 302 299 285 268 276 279 297 295 294 289 286 276 273 277 279 283 284 275 263 249 225 222 216 219 220 219
12 4 2 2 2 358 350 345 351 0 342 333 330 329 327 318 289 275 296 287 269 260 288 272 282 281 278 276 272 269 266 270 278 285 272 262 250 227 223 217 217 219 218
11 7 8 3 359 9 9 13 15 8 360 345 327 316 304 300 297 290 278 294 302 295 281 265 280 287 289 288 284 281 279 271 271 271 266 262 249 227 219 217 218 218 218
8 4 359 3 5 8 13 13 12 14 12 2 348 337 322 290 271 275 285 290 301 323 264 279 286 296 302 305 305 296 277 276 273 265 260 265 254 226 221 214 217 219 217
9 1 4 4 2 12 20 21 19 13 11 8 2 346 326 300 286 292 277 270 294 346 188 279 300 308 319 320 339 350 341 304 274 255 251 253 246 237 219 212 216 218 220
4 6 4 5 18 18 19 22 19 16 13 9 16 22 29 15 309 281 231 251 274 286 333 263 309 324 321 299 291 312 317 320 280 262 261 245 238 231 227 230 215 220 220
9 15 6 12 19 19 19 18 17 20 18 26 34 40 44 41 41 21 252 237 229 248 236 236 306 327 323 300 287 300 291 275 290 294 252 240 232 226 224 225 222 224 230
13 5 8 7 11 20 24 23 19 18 23 28 35 34 32 40 39 45 61 115 147 189 230 232 343 358 341 317 310 305 289 267 277 286 280 257 247 235 231 228 224 225 224
12 8 12 7 15 21 24 24 20 20 25 29 32 29 34 32 33 49 72 68 68 76 94 40 98 53 68 54 46 30 348 284 279 283 279 280 251 236 228 226 230 231 225
12 17 20 18 17 25 25 28 27 31 34 32 33 43 48 51 45 49 74 59 74 63 60 73 92 111 91 70 54 51 48 36 24 353 299 281 279 245 232 229 227 226 224
19 22 21 20 23 28 34 35 33 35 33 29 36 34 45 51 54 56 60 73 71 48 36 17 27 307 235 283 344 19 47 44 29 7 347 298 286 265 242 236 226 221 219
20 23 21 26 38 46 43 47 52 43 42 46 48 58 55 50 49 49 52 57 45 41 49 55 55 90 101 293 349 337 328 18 35 39 46 95 142 119 193 215 209 206 206
19 23 26 30 49 52 56 53 47 42 42 42 43 50 54 50 44 45 43 47 68 87 87 79 80 65 56 66 59 53 58 23 29 45 52 57 80 87 88 94 178 189 186
17 17 23 25 37 38 49 40 28 27 33 39 36 33 35 27 27 39 41 45 50 36 32 49 64 75 90 84 67 56 55 52 58 62 56 57 62 74 76 81 79 142 178
15 10 16 22 25 31 34 40 28 21 23 26 27 25 21 23 46 65 60 59 65 71 69 59 63 77 94 87 72 58 66 69 64 61 56 58 64 70 71 88 94 105 144
16 6 7 21 22 24 23 23 20 12 14 18 23 19 23 45 56 54 59 61 60 65 69 69 70 74 89 72 59 47 42 42 44 38 32 41 54 68 76 75 82 121 139
5 6 4 6 13 21 25 24 25 26 18 23 12 13 20 30 35 34 31 30 37 40 51 62 66 69 69 45 19 31 20 354 311 3 21 29 37 65 66 82 93 105 126